COSMOS 252 DEB *, 3686

Orbit data source: Space-Track

COSMOS 252 DEB *, 3686 is space debris in LEO originally from a launch on Fri, 01 Nov 1968 UTC launched from the Tyuratam Missile And Space Complex (TTMTR). Debris objects in space refer to the collection of defunct objects orbiting the Earth. Examples of debris include non-operational satellites, rocket bodies, and fragments generated from explosions, collisions, or faulty payload assembly.

Loading next visibility...
Identifier
3686, 1968-097AD
Orbit
LEO
Country
Flag of CISCIS
Related business
Manufacturer
Unknown
Mission
Spacecraft
Bus & Motor
Unknown
Mass
Unknown
Launch date (UTC)
1968-11-01 (57 years ago)
Launch vehicle
Unknown
Launch site
Tyuratam Missile And Space Complex (TTMTR)
Object type
Payload
Rocket body
Debris
Shape & HBR
Unknown shape, 0.1 m
Radar Cross Section
Small (<0.1 m²)

Expand to show TLE details & history
Last TLE update: 7 hours ago

TLE from 7 hours ago
0 COSMOS 252 DEB *
1 03686U 68097AD  25346.97960802  .00002680  00000-0  24134-2 0  9996
2 03686  62.2572 219.2597 0648265 129.4627 236.5597 13.16994695672236
Epoch: 2025-12-12T23:30Z
TLE epoch observation values (Epoch: 2025-12-12T23:30:38.132Z)
Latitude
0.00004°
Longitude
144.68738°
Altitude
1,489.491 km
Speed
6.981 km/s
True Right ascension
14h 37m 02s
True Declination
0° 00' 00"
Sunlit
Object was in daylight at epoch
Visualization orbit readout
Latitude
Unknown
Longitude
Unknown
Altitude
Unknown
Speed
Unknown
Apparent Right ascension
Unknown
Apparent Declination
Unknown
Sunlit
N/A
Visualization observer readout
Local Sidereal Time
05:22:57
Azimuth
Unknown
Elevation
Unknown
Doppler factor
Unknown
Orbital elements
Apogee altitude
1,686.155 km
Perigee altitude
704.249 km
Semi-major axis
7,573.339 km
Eccentricity
0.06483
Inclination
62.2572°
RAAN
219.2597°
Arg. of periapsis
129.4627°
True anomaly
230.63676°
Mean anomaly
236.5597°
Eccentric anomaly
233.5712°
Mean motion
3.29315 °/min
Orbital period
109.32 mins
BSTAR
0.0024134
Loading maneuver chart data...
Computing Atmospheric mass density...

Documentation

Showing up to 5 results
|